Location: Follega
(52.8850°N, 5.7362°E)
Time: 03:30:27
(UTC+00:00)

Cosmos 2297 Rocket - Pass Details

Date: 07 October 2020
Orbit: 838 x 845 km, 71.0° (Epoch: 26 October)

Event Time Altitude Azimuth Distance (km) Brightness Sun altitude
Rises 21:17:42 0° 328° (NNW) 3,417 6.3 -36.4°
Reaches altitude 10° 21:20:10 10° 330° (NNW) 2,479 5.4 -36.6°
Enters shadow 21:23:12 33° 335° (NNW) 1,401 3.7 -36.9°
